Weather History for Miami, FL

Change the Weather History Date:

Tuesday, September 17, 2013

  Actual Average Record
Temperature  
Mean Temperature 82 °F 83 °F  
Max Temperature 88 °F 89 °F 95 °F (1989)
Min Temperature 76 °F 77 °F 68 °F (1910)
Degree Days  
Heating Degree Days 0 0  
Month to date heating degree days 0 0  
Since 1 July heating degree days 0 0  
Cooling Degree Days 17 18  
Month to date cooling degree days 309 308  
Year to date cooling degree days 3446 3383  
Growing Degree Days 32 (Base 50)    
Moisture  
Dew Point 74 °F    
Average Humidity 85    
Maximum Humidity 91    
Minimum Humidity 79    
Precipitation  
Precipitation 0.39 in 0.35 in 7.07 in (1928)
Month to date precipitation 6.27 5.53  
Year to date precipitation 48.95 45.93  
Snow  
Snow 0.00 in - - ()
Month to date snowfall 0.0  
Since 1 July snowfall 0.0  
Since 1 September snowfall 0.0  
Snow Depth 0.00 in    
Sea Level Pressure  
Sea Level Pressure 29.98 in    
Wind  
Wind Speed 5 mph (NE)    
Max Wind Speed 15 mph    
Max Gust Speed 20 mph    
Visibility 9 miles    
Events Rain , Thunderstorm    
T = Trace of Precipitation, MM = Missing Value Source: NWS Daily Summary

Daily Weather History Graph

Daily Weather History Graph

Search for Another Location

Airport:

Trip Planner

Search our weather history database for the weather conditions in past years. The results will help you decide how hot, cold, wet, or windy it might be!

Date:

Astronomy

Sep. 17, 2013 Rise Set
Actual Time 7:07 AM EDT 7:22 PM EDT
Civil Twilight 6:44 AM EDT 7:45 PM EDT
Nautical Twilight 6:18 AM EDT 8:12 PM EDT
Astronomical Twilight 5:51 AM EDT 8:39 PM EDT
Moon 6:04 PM EDT (9/17) 5:09 AM EDT (9/17)
Length of Visible Light 13h 00m
Length of Day
12h 14m
Waxing Gibbous, 96% of the Moon is Illuminated
Sep 17
Waxing Gibbous
Sep 19
Full
Sep 26
Last Quarter
Oct 4
New
Oct 11
First Quarter

Hourly Weather History & Observations

Time (EDT) Temp. Heat Index Dew Point Humidity Pressure Visibility Wind Dir Wind Speed Gust Speed Precip Events Conditions
12:53 AM 81.0 °F 86.7 °F 75.0 °F 82% 30.00 in 10.0 mi ENE 6.9 mph - N/A   Overcast
1:53 AM 81.0 °F 86.2 °F 73.9 °F 79% 29.97 in 10.0 mi East 8.1 mph - N/A   Mostly Cloudy
2:53 AM 79.0 °F - 75.0 °F 88% 29.96 in 10.0 mi East 9.2 mph - 0.00 in   Mostly Cloudy
3:53 AM 79.0 °F - 75.0 °F 88% 29.96 in 9.0 mi East 8.1 mph - N/A   Mostly Cloudy
4:53 AM 77.0 °F - 73.0 °F 88% 29.95 in 10.0 mi East 3.5 mph - 0.00 in   Mostly Cloudy
5:53 AM 77.0 °F - 73.9 °F 90% 29.95 in 10.0 mi ENE 3.5 mph - N/A   Mostly Cloudy
6:53 AM 77.0 °F - 73.9 °F 90% 29.96 in 10.0 mi Calm Calm - N/A   Mostly Cloudy
7:53 AM 78.1 °F - 75.0 °F 90% 29.98 in 10.0 mi North 4.6 mph - N/A   Mostly Cloudy
8:44 AM 77.0 °F - 73.4 °F 89% 30.00 in 4.0 mi Calm Calm - 0.02 in Rain Heavy Rain
8:53 AM 78.1 °F - 73.9 °F 87% 30.00 in 7.0 mi West 3.5 mph - 0.22 in Rain Rain
8:59 AM 77.0 °F - 73.4 °F 89% 30.00 in 7.0 mi Calm Calm - 0.01 in Rain Light Rain
9:53 AM 80.1 °F 85.4 °F 75.9 °F 87% 30.02 in 10.0 mi Calm Calm - 0.02 in   Mostly Cloudy
10:08 AM 80.6 °F 86.2 °F 75.2 °F 84% 30.01 in 10.0 mi Variable 3.5 mph - N/A   Mostly Cloudy
10:34 AM 80.6 °F 86.2 °F 75.2 °F 84% 30.03 in 7.0 mi NE 9.2 mph - 0.00 in Rain Light Rain
10:53 AM 75.9 °F - 72.0 °F 87% 30.03 in 7.0 mi NE 8.1 mph - 0.04 in Rain Rain
11:47 AM 78.8 °F - 75.2 °F 89% 30.03 in 10.0 mi Calm Calm - 0.06 in Rain Light Rain
11:53 AM 79.0 °F - 75.0 °F 88% 30.03 in 10.0 mi Calm Calm - 0.06 in Rain Light Rain
12:53 PM 84.9 °F 94.1 °F 75.9 °F 74% 30.01 in 10.0 mi Calm Calm - 0.00 in Rain Light Rain
1:53 PM 84.9 °F 92.1 °F 73.9 °F 69% 29.99 in 10.0 mi North 9.2 mph - 0.00 in   Mostly Cloudy
2:09 PM 82.4 °F 87.2 °F 71.6 °F 70% 29.98 in 10.0 mi NNE 10.4 mph 17.3 mph N/A Thunderstorm Thunderstorm
2:39 PM 80.6 °F 84.6 °F 71.6 °F 74% 29.98 in 10.0 mi NNE 11.5 mph 17.3 mph N/A   Overcast
2:53 PM 80.1 °F 83.8 °F 72.0 °F 76% 29.98 in 10.0 mi NE 9.2 mph - 0.00 in Rain Light Rain
3:53 PM 79.0 °F - 73.9 °F 84% 29.97 in 10.0 mi NNE 9.2 mph - 0.01 in Rain Light Rain
4:53 PM 79.0 °F - 75.0 °F 88% 29.94 in 10.0 mi NE 9.2 mph - 0.02 in   Overcast
5:53 PM 79.0 °F - 73.9 °F 84% 29.94 in 10.0 mi NE 4.6 mph - 0.02 in Rain Light Rain
6:53 PM 79.0 °F - 73.0 °F 82% 29.94 in 10.0 mi NE 5.8 mph - 0.00 in   Overcast
7:53 PM 79.0 °F - 73.9 °F 84% 29.96 in 10.0 mi East 8.1 mph - N/A   Overcast
8:53 PM 80.1 °F 84.5 °F 73.9 °F 81% 29.96 in 10.0 mi NE 5.8 mph - N/A   Mostly Cloudy
9:53 PM 81.0 °F 86.7 °F 75.0 °F 82% 29.98 in 10.0 mi ENE 4.6 mph - N/A   Overcast
10:53 PM 80.1 °F 85.1 °F 75.0 °F 85% 29.98 in 10.0 mi East 4.6 mph - N/A   Overcast
11:53 PM 80.1 °F 85.1 °F 75.0 °F 85% 29.97 in 10.0 mi Calm Calm - 0.00 in   Overcast